Вернуться в каталог

BREEZE-KM R/B

АктивенPO
NORAD 44518·ROCKET BODY·🇷🇺 Russia

Запущен Aug 30, 2019 с Plesetsk Cosmodrome

Loading…

Ближайшие Пролёты (ближайшие 24 часа)

TLE

СвежийSource: Space-Track

Эпоха: Sep 14, 2026, 08:44 UTC

1 44518U 19057B   26257.36442229  .00000028  00000-0  27056-4 0  9992
2 44518  99.1793  46.9321 0199860  78.1900 284.1619 14.25548299366257

Отслеживайте BREEZE-KM R/B в реальном времени с AllMySat

Download on the App Store